Location: Carri�res
(48.9069°N, 2.1792°E)
Time: 13:37:55
(UTC+00:00)

Cosmos 1092 Rocket - Pass Details

Date: 17 January 2021
Orbit: 954 x 995 km, 83.0° (Epoch: 25 February)

Event Time Altitude Azimuth Distance (km) Brightness Sun altitude
Rises 19:07:16 0° 182° (S) 3,662 7.1 -26.0°
Reaches altitude 10° 19:09:46 10° 182° (S) 2,713 6.3 -26.4°
Maximum altitude 19:15:58 79° 96° (E) 989 3.8 -27.5°
Enters shadow 19:17:26 55° 23° (NNE) 1,155 4.2 -27.7°
Exits shadow 19:24:31 - 11° (N) 3,600 6.9 -28.9°
Sets 19:24:39 0° 11° (N) 3,652 6.9 -28.9°
